Weather History for Los Alamos, NM

Change the Weather History Date:

Tuesday, June 25, 2013

  Actual Average Record
Temperature  
Mean Temperature 75 °F -  
Max Temperature 85 °F 81 °F 94 °F (1980)
Min Temperature 65 °F 53 °F 40 °F (1969)
Cooling Degree Days 10    
Growing Degree Days 25 (Base 50)    
Moisture  
Dew Point 20 °F    
Average Humidity 13    
Maximum Humidity 17    
Minimum Humidity 9    
Precipitation  
Precipitation 0.00 in - - ()
Sea Level Pressure  
Sea Level Pressure 30.20 in    
Wind  
Wind Speed 15 mph (West)    
Max Wind Speed 23 mph    
Max Gust Speed 36 mph    
Visibility 10 miles    
Events      
Averages and records for this station are not official NWS values.
T = Trace of Precipitation, MM = Missing Value Source: NWS Daily Summary

Daily Weather History Graph

Daily Weather History Graph

Search for Another Location

Airport:

Trip Planner

Search our weather history database for the weather conditions in past years. The results will help you decide how hot, cold, wet, or windy it might be!

Date:

Astronomy

Jun. 25, 2013 Rise Set
Actual Time 5:50 AM MDT 8:25 PM MDT
Civil Twilight 5:19 AM MDT 8:55 PM MDT
Nautical Twilight 4:42 AM MDT 9:33 PM MDT
Astronomical Twilight 4:00 AM MDT 10:14 PM MDT
Moon 10:19 PM MDT (6/25) 8:28 AM MDT (6/25)
Length of Visible Light 15h 35m
Length of Day
14h 35m
Waning Gibbous, 92% of the Moon is Illuminated
Jun 25
Waning Gibbous
Jun 29
Last Quarter
Jul 8
New
Jul 15
First Quarter
Jul 22
Full

Hourly Weather History & Observations

Time (MDT) Temp. Dew Point Humidity Pressure Visibility Wind Dir Wind Speed Gust Speed Precip Events Conditions
12:15 AM 72.5 °F 9.1 °F 9% 30.15 in 10.0 mi West 12.7 mph 23.0 mph N/A   Clear
12:35 AM 72.0 °F 10.9 °F 10% 30.15 in 10.0 mi West 18.4 mph 26.5 mph N/A   Clear
12:55 AM 72.0 °F 10.6 °F 9% 30.14 in 10.0 mi West 21.9 mph 28.8 mph N/A   Clear
1:15 AM 71.8 °F 11.7 °F 10% 30.15 in 10.0 mi West 19.6 mph 33.4 mph N/A   Clear
1:35 AM 71.1 °F 11.5 °F 10% 30.15 in 10.0 mi West 19.6 mph 25.3 mph N/A   Clear
1:55 AM 70.7 °F 12.2 °F 11% 30.16 in 10.0 mi West 16.1 mph 25.3 mph N/A   Clear
2:15 AM 69.4 °F 12.7 °F 11% 30.16 in 10.0 mi West 17.3 mph 24.2 mph N/A   Clear
2:35 AM 69.1 °F 13.6 °F 12% 30.15 in 10.0 mi West 21.9 mph 26.5 mph N/A   Clear
2:55 AM 68.9 °F 14.4 °F 12% 30.15 in 10.0 mi West 21.9 mph 27.6 mph N/A   Clear
3:15 AM 68.7 °F 15.6 °F 13% 30.16 in 10.0 mi West 18.4 mph 28.8 mph N/A   Clear
3:35 AM 68.2 °F 15.8 °F 13% 30.16 in 10.0 mi West 23.0 mph 29.9 mph N/A   Clear
3:55 AM 68.0 °F 16.2 °F 14% 30.17 in 10.0 mi WSW 18.4 mph 31.1 mph N/A   Clear
4:15 AM 67.1 °F 16.3 °F 14% 30.17 in 10.0 mi West 21.9 mph 28.8 mph N/A   Clear
4:35 AM 66.4 °F 16.3 °F 15% 30.18 in 10.0 mi West 21.9 mph 29.9 mph N/A   Clear
4:55 AM 65.8 °F 16.5 °F 15% 30.18 in 10.0 mi WSW 16.1 mph 29.9 mph N/A   Clear
5:15 AM 65.3 °F 16.7 °F 15% 30.18 in 10.0 mi West 18.4 mph 28.8 mph N/A   Clear
5:35 AM 65.5 °F 17.6 °F 16% 30.19 in 10.0 mi West 17.3 mph 26.5 mph N/A   Clear
5:55 AM 65.8 °F 18.7 °F 16% 30.19 in 10.0 mi West 19.6 mph 28.8 mph N/A   Clear
6:15 AM 66.4 °F 18.1 °F 16% 30.19 in 10.0 mi West 21.9 mph 35.7 mph N/A   Clear
6:35 AM 66.2 °F 19.4 °F 17% 30.20 in 10.0 mi West 18.4 mph 31.1 mph N/A   Clear
6:55 AM 67.6 °F 20.3 °F 17% 30.21 in 10.0 mi West 16.1 mph 27.6 mph N/A   Clear
7:15 AM 68.2 °F 21.6 °F 17% 30.21 in 10.0 mi West 17.3 mph 28.8 mph N/A   Clear
7:35 AM 68.9 °F 22.3 °F 17% 30.22 in 10.0 mi West 18.4 mph 29.9 mph N/A   Clear
7:55 AM 69.4 °F 21.9 °F 17% 30.23 in 10.0 mi West 21.9 mph 31.1 mph N/A   Clear
8:15 AM 70.3 °F 22.8 °F 17% 30.23 in 10.0 mi West 15.0 mph 24.2 mph N/A   Clear
8:35 AM 71.2 °F 23.0 °F 16% 30.24 in 10.0 mi West 12.7 mph 20.7 mph N/A   Clear
8:55 AM 72.7 °F 22.3 °F 15% 30.24 in 10.0 mi West 11.5 mph 18.4 mph N/A   Clear
9:15 AM 72.9 °F 21.4 °F 14% 30.23 in 10.0 mi West 11.5 mph 19.6 mph N/A   Clear
9:35 AM 73.4 °F 20.1 °F 13% 30.23 in 10.0 mi West 17.3 mph 26.5 mph N/A   Clear
9:55 AM 74.7 °F 21.6 °F 14% 30.23 in 10.0 mi West 12.7 mph 23.0 mph N/A   Clear
10:15 AM 75.0 °F 20.7 °F 13% 30.23 in 10.0 mi West 10.4 mph 20.7 mph N/A   Clear
10:35 AM 75.4 °F 20.3 °F 13% 30.23 in 10.0 mi West 11.5 mph - N/A   Clear
10:55 AM 76.8 °F 18.7 °F 11% 30.24 in 10.0 mi WNW 11.5 mph 20.7 mph N/A   Clear
11:15 AM 76.5 °F 19.8 °F 12% 30.24 in 10.0 mi West 10.4 mph - N/A   Clear
11:35 AM 77.7 °F 21.7 °F 12% 30.24 in 10.0 mi West 5.8 mph - N/A   Clear
11:55 AM 78.1 °F 20.3 °F 12% 30.25 in 10.0 mi West 12.7 mph 20.7 mph N/A   Clear
12:15 PM 78.8 °F 19.8 °F 11% 30.24 in 10.0 mi West 15.0 mph 23.0 mph N/A   Clear
12:35 PM 79.0 °F 19.6 °F 11% 30.24 in 10.0 mi WNW 10.4 mph 21.9 mph N/A   Clear
12:55 PM 80.6 °F 20.8 °F 11% 30.23 in 10.0 mi West 12.7 mph 19.6 mph N/A   Clear
1:15 PM 81.1 °F 21.4 °F 11% 30.23 in 10.0 mi WNW 12.7 mph 19.6 mph N/A   Clear
1:35 PM 82.2 °F 21.6 °F 11% 30.22 in 10.0 mi NNW 6.9 mph 17.3 mph N/A   Clear
1:55 PM 83.3 °F 21.7 °F 10% 30.22 in 10.0 mi West 13.8 mph - N/A   Clear
2:15 PM 82.8 °F 22.1 °F 11% 30.21 in 10.0 mi West 15.0 mph 23.0 mph N/A   Clear
2:35 PM 83.3 °F 23.2 °F 11% 30.21 in 10.0 mi NW 10.4 mph 19.6 mph N/A   Clear
2:55 PM 83.7 °F 23.0 °F 11% 30.21 in 10.0 mi WNW 9.2 mph - N/A   Clear
3:15 PM 83.5 °F 22.5 °F 11% 30.21 in 10.0 mi WNW 15.0 mph 23.0 mph N/A   Clear
3:35 PM 84.4 °F 22.8 °F 10% 30.21 in 10.0 mi West 11.5 mph 21.9 mph N/A   Clear
3:55 PM 82.2 °F 22.5 °F 11% 30.20 in 10.0 mi NW 10.4 mph - N/A   Clear
4:15 PM 82.6 °F 23.4 °F 11% 30.19 in 10.0 mi WNW 6.9 mph 19.6 mph N/A   Clear
4:35 PM 85.8 °F 25.2 °F 11% 30.19 in 10.0 mi West 12.7 mph 24.2 mph N/A   Clear
4:55 PM 84.2 °F 24.3 °F 11% 30.18 in 10.0 mi SW 3.5 mph 21.9 mph N/A   Clear
5:15 PM 84.6 °F 25.0 °F 11% 30.18 in 10.0 mi WSW 16.1 mph 20.7 mph N/A   Clear
5:35 PM 84.0 °F 24.6 °F 11% 30.18 in 10.0 mi WSW 16.1 mph 23.0 mph N/A   Clear
5:55 PM 84.0 °F 24.8 °F 11% 30.18 in 10.0 mi WSW 12.7 mph 18.4 mph N/A   Clear
6:15 PM 83.7 °F 24.8 °F 12% 30.18 in 10.0 mi WSW 13.8 mph - N/A   Clear
6:35 PM 83.3 °F 24.3 °F 11% 30.18 in 10.0 mi WSW 12.7 mph 16.1 mph N/A   Clear
6:55 PM 83.1 °F 24.4 °F 12% 30.19 in 10.0 mi WSW 15.0 mph 20.7 mph N/A   Clear
7:15 PM 82.8 °F 23.9 °F 12% 30.19 in 10.0 mi SW 10.4 mph - N/A   Clear
7:35 PM 82.6 °F 24.1 °F 12% 30.19 in 10.0 mi WSW 9.2 mph - N/A   Clear
7:55 PM 82.0 °F 23.9 °F 12% 30.19 in 10.0 mi WSW 12.7 mph - N/A   Clear
8:15 PM 81.0 °F 23.9 °F 12% 30.20 in 10.0 mi WSW 8.1 mph - N/A   Clear
8:35 PM 80.2 °F 24.1 °F 13% 30.20 in 10.0 mi WSW 8.1 mph - N/A   Clear
8:55 PM 79.0 °F 23.9 °F 13% 30.21 in 10.0 mi West 8.1 mph - N/A   Clear
9:15 PM 78.3 °F 23.9 °F 13% 30.21 in 10.0 mi West 6.9 mph - N/A   Clear
9:35 PM 77.0 °F 23.9 °F 14% 30.23 in 10.0 mi West 6.9 mph - N/A   Clear
9:55 PM 76.8 °F 24.1 °F 14% 30.23 in 10.0 mi West 8.1 mph - N/A   Clear
10:15 PM 75.7 °F 24.1 °F 15% 30.24 in 10.0 mi West 4.6 mph - N/A   Clear
10:35 PM 75.6 °F 23.9 °F 15% 30.24 in 10.0 mi WNW 6.9 mph - N/A   Clear
10:55 PM 75.2 °F 23.9 °F 15% 30.23 in 10.0 mi WNW 6.9 mph - N/A   Clear
11:15 PM 74.5 °F 23.9 °F 15% 30.23 in 10.0 mi NW 9.2 mph - N/A   Clear
11:35 PM 74.3 °F 24.8 °F 16% 30.24 in 10.0 mi NW 9.2 mph - N/A   Clear